Torna al catalogo

STARLINK-5026

AttivoComunicazioniVLEO
NORAD 57260·PAYLOAD·🇺🇸 United States

Lanciato Jul 7, 2023 da Vandenberg Space Force Base

Loading…

Prossimi Passaggi (prossime 24 ore)

TLE

AggiornatoSource: CelesTrak SupGP

Epoca: Sep 14, 2026, 14:50 UTC

1 57260C 23094AU  26257.61854167 -.00018787  00000+0 -68059-3 0  2578
2 57260  43.0021  32.7849 0001451 266.0659 170.2231 15.27580782    12

Traccia STARLINK-5026 in tempo reale con AllMySat

Download on the App Store